Weather History for Chillicothe, MO

Change the Weather History Date:

Friday, May 24, 2013

  Actual Average (KIRK) Record (KIRK)
Temperature  
Mean Temperature 60 °F 65 °F  
Max Temperature 71 °F 75 °F 95 °F (1939)
Min Temperature 48 °F 55 °F 37 °F (1924)
Degree Days  
Heating Degree Days 6 3  
Month to date heating degree days 136  
Since 1 July heating degree days 5826  
Cooling Degree Days 0 2  
Month to date cooling degree days 34  
Year to date cooling degree days 41  
Growing Degree Days 10 (Base 50)    
Moisture  
Dew Point 46 °F    
Average Humidity 61    
Maximum Humidity 93    
Minimum Humidity 36    
Precipitation  
Precipitation 0.00 in 0.17 in 1.48 in (1947)
Month to date precipitation 3.82  
Year to date precipitation 13.01  
Sea Level Pressure  
Sea Level Pressure 30.28 in    
Wind  
Wind Speed 5 mph (SE)    
Max Wind Speed 13 mph    
Max Gust Speed 22 mph    
T = Trace of Precipitation, MM = Missing Value Source: NWS Daily Summary

Daily Weather History Graph

Daily Weather History Graph

Search for Another Location

Airport:

Trip Planner

Search our weather history database for the weather conditions in past years. The results will help you decide how hot, cold, wet, or windy it might be!

Date:

Astronomy

May. 24, 2013 Rise Set
Actual Time 5:52 AM CDT 8:30 PM CDT
Civil Twilight 5:20 AM CDT 9:02 PM CDT
Nautical Twilight 4:41 AM CDT 9:41 PM CDT
Astronomical Twilight 3:57 AM CDT 10:25 PM CDT
Moon 8:13 PM CDT (5/24) 5:24 AM CDT (5/24)
Length of Visible Light 15h 41m
Length of Day
14h 38m
Full, 100% of the Moon is Illuminated
May 24
Full
May 24
Full
May 31
Last Quarter
Jun 8
New
Jun 16
First Quarter

Hourly Weather History & Observations

Time (CDT) Temp. Dew Point Humidity Pressure Visibility Wind Dir Wind Speed Gust Speed Precip Events Conditions
12:52 AM 50.0 °F 46.0 °F 86% 30.25 in - Calm Calm - N/A   Unknown
1:52 AM 48.9 °F 46.9 °F 93% 30.26 in - Calm Calm - N/A   Unknown
2:52 AM 48.9 °F 46.0 °F 90% 30.28 in - Calm Calm - N/A   Unknown
3:52 AM 48.0 °F 45.0 °F 89% 30.29 in - Calm Calm - N/A   Unknown
4:52 AM 48.0 °F 45.0 °F 89% 30.31 in - Calm Calm - N/A   Unknown
5:52 AM 50.0 °F 46.0 °F 86% 30.32 in - Calm Calm - N/A   Unknown
6:52 AM 53.1 °F 48.9 °F 86% 30.34 in - ESE 6.9 mph - N/A   Unknown
7:52 AM 55.9 °F 51.1 °F 84% 30.36 in - Variable 6.9 mph - N/A   Unknown
8:52 AM 59.0 °F 48.9 °F 69% 30.38 in - SE 8.1 mph - N/A   Unknown
9:52 AM 61.0 °F 48.0 °F 62% 30.38 in - SE 11.5 mph 18.4 mph N/A   Unknown
10:52 AM 63.0 °F 48.0 °F 58% 30.36 in - SSE 10.4 mph 18.4 mph N/A   Unknown
11:52 AM 64.9 °F 46.0 °F 50% 30.36 in - SSE 9.2 mph 20.7 mph N/A   Unknown
12:52 PM 66.9 °F 46.9 °F 49% 30.34 in - SE 11.5 mph 19.6 mph N/A   Unknown
1:52 PM 68.0 °F 46.9 °F 47% 30.31 in - SE 10.4 mph 21.9 mph N/A   Unknown
2:52 PM 69.1 °F 46.0 °F 44% 30.30 in - South 12.7 mph 18.4 mph N/A   Unknown
3:52 PM 70.0 °F 45.0 °F 41% 30.28 in - SE 11.5 mph 18.4 mph N/A   Unknown
4:52 PM 71.1 °F 44.1 °F 38% 30.25 in - SE 9.2 mph 18.4 mph N/A   Unknown
5:52 PM 71.1 °F 43.0 °F 36% 30.22 in - SE 9.2 mph - N/A   Unknown
6:52 PM 70.0 °F 43.0 °F 38% 30.20 in - SE 10.4 mph - N/A   Unknown
7:52 PM 68.0 °F 42.1 °F 39% 30.19 in - SE 9.2 mph - N/A   Unknown
8:52 PM 64.9 °F 43.0 °F 45% 30.19 in - SE 5.8 mph - N/A   Unknown
9:52 PM 64.0 °F 43.0 °F 46% 30.19 in - SSE 8.1 mph - N/A   Unknown
10:52 PM 63.0 °F 43.0 °F 48% 30.21 in - SE 4.6 mph - N/A   Unknown
11:52 PM 61.0 °F 43.0 °F 52% 30.22 in - ESE 8.1 mph - N/A   Unknown